Wind_Speed
9 11 18 22 21 21 22 22 22 20 22 22 21 22 21 22 23 24 25 25 23 22 22 22 22 21 21 20 19 18 17 17 16 15 14 13 11 11 10 10 9 9 10 10 11 12 12 11 11 11 11 11 11 12 12 11 11 12 10 9 9 9 9 8 7 8 8 6 7 6 6 7 7 7 7 8 8 7 7 7 7 7 8 10 11
11 13 18 21 20 20 22 22 20 20 23 22 19 20 20 21 22 23 23 23 22 21 21 21 20 20 20 20 18 17 16 15 14 14 12 11 10 9 8 8 9 9 9 10 11 11 11 11 11 10 10 11 11 12 12 11 11 11 11 10 9 8 8 7 7 7 7 6 6 6 6 6 6 7 6 7 7 7 7 7 7 7 8 10 10
11 13 18 20 19 19 21 20 19 20 22 21 18 18 19 20 21 21 21 21 20 20 20 20 20 18 19 19 18 16 15 14 13 12 11 10 9 8 7 7 8 8 8 9 10 10 10 10 10 10 10 10 11 12 12 11 9 10 10 10 9 7 6 6 6 6 5 5 5 5 5 5 5 6 5 5 6 7 6 7 7 8 8 10 10
10 13 19 20 19 18 19 18 17 18 20 19 18 19 19 19 20 20 19 19 19 19 20 20 20 19 18 17 17 16 15 13 12 11 10 9 8 7 7 7 8 8 8 9 9 9 10 10 10 10 9 10 11 11 12 11 9 9 9 9 9 7 5 4 4 5 4 4 4 4 4 4 4 4 4 4 6 6 6 6 7 8 9 9 10
14 16 19 21 19 18 18 17 17 18 19 18 18 19 18 18 19 19 18 17 18 18 20 20 19 18 16 15 15 14 13 11 10 9 9 8 7 6 6 6 7 7 8 8 8 9 9 9 10 9 9 9 10 11 11 10 9 9 9 8 8 7 4 1 1 2 2 2 2 2 2 2 3 3 3 4 4 5 6 6 7 8 9 10 10
18 18 18 19 19 18 17 16 17 20 20 18 18 18 18 18 18 18 17 17 17 17 19 20 19 17 15 14 14 13 11 10 9 8 8 8 7 6 5 5 6 7 7 8 7 8 9 9 9 9 9 9 10 10 10 10 10 10 9 8 8 7 5 2 2 2 2 1 2 2 3 2 3 3 2 3 3 4 6 6 8 8 9 10 10
18 18 18 17 18 17 15 15 17 20 20 18 16 17 17 17 17 18 17 17 17 18 19 19 18 16 14 14 13 12 10 9 8 8 7 7 6 5 5 5 5 6 7 7 6 7 8 8 8 8 9 10 10 10 11 11 10 11 9 8 8 7 5 2 2 3 2 2 1 3 3 3 3 2 2 3 3 4 5 6 7 8 9 9 10
18 16 18 18 18 17 15 15 17 18 20 18 15 17 18 16 16 18 17 17 18 17 17 18 16 15 14 13 12 11 10 9 8 7 6 6 5 4 4 4 5 5 6 6 6 6 6 7 7 8 9 10 10 11 12 11 11 11 9 8 8 8 7 4 0 2 0 2 0 2 3 3 3 2 1 3 3 3 5 6 7 7 8 8 10
19 16 18 19 17 17 15 15 17 17 19 18 17 18 18 17 17 18 17 17 18 17 17 17 15 14 13 12 11 10 10 9 8 6 6 5 5 4 3 3 3 4 4 5 5 6 6 7 7 8 9 10 10 9 9 9 11 12 11 10 9 8 7 7 4 1 1 1 1 2 3 4 3 2 1 3 3 3 4 6 7 6 7 8 9
20 18 19 19 16 16 15 15 16 17 16 17 18 18 18 18 18 18 17 17 16 15 16 16 15 14 12 12 11 10 10 8 7 6 5 5 4 3 3 2 2 2 3 4 5 6 7 7 8 9 10 10 9 8 7 7 10 12 12 12 12 9 7 7 7 4 3 3 3 3 3 4 3 1 1 2 3 3 4 6 7 6 7 8 8
20 19 19 18 15 16 15 14 15 16 15 16 17 17 17 17 18 17 16 15 15 14 15 14 14 13 12 12 11 9 9 8 7 6 5 4 3 2 2 1 1 1 2 4 5 6 7 7 8 9 9 9 9 8 8 9 8 9 10 12 12 10 8 8 8 6 6 6 4 3 4 5 3 1 0 2 2 3 4 5 6 6 6 7 8
19 19 19 16 14 15 14 14 15 16 15 16 18 19 18 17 17 16 15 15 15 14 14 14 13 12 11 11 11 9 8 8 7 5 4 3 2 2 1 1 0 1 2 4 5 7 8 8 7 7 8 9 8 9 10 9 8 8 8 10 11 9 9 8 8 7 8 7 5 2 4 6 4 2 1 2 2 2 4 5 6 6 6 6 7
19 19 18 15 13 14 13 14 16 17 16 17 20 20 18 17 17 16 15 15 14 14 14 13 13 11 11 10 10 9 8 7 5 4 3 3 2 2 1 1 1 2 3 5 6 8 8 7 6 7 8 9 8 9 10 9 9 9 9 10 11 9 8 7 7 7 8 8 7 3 4 6 5 3 3 3 2 2 4 5 6 6 7 6 7
19 20 18 14 13 13 13 14 16 17 16 18 21 20 18 17 16 15 15 14 14 14 13 12 12 10 10 9 9 8 7 6 4 4 2 2 2 2 2 2 3 4 6 8 9 8 7 6 6 6 6 8 10 10 10 11 10 9 8 10 11 10 8 6 5 5 8 9 10 5 3 4 6 5 3 3 2 2 3 5 6 7 7 6 6
18 19 18 15 13 13 12 13 15 15 16 18 20 19 18 16 15 14 14 13 13 13 12 11 11 10 9 8 8 7 6 5 4 4 3 3 2 2 2 3 4 5 7 10 10 8 8 7 6 6 5 8 11 10 10 11 12 11 8 8 9 10 8 7 6 6 7 8 9 6 3 3 6 6 4 4 3 3 3 5 6 7 7 7 6
17 18 17 16 14 13 12 13 14 15 16 18 18 18 18 16 15 14 13 13 13 12 11 11 10 9 8 7 7 7 6 6 5 4 4 3 3 3 3 3 4 6 9 10 9 10 11 9 8 8 8 9 12 11 10 10 11 13 10 8 8 10 9 8 8 7 6 6 7 5 3 3 5 6 5 4 3 3 2 4 6 7 7 7 7
17 16 16 17 16 16 15 14 15 14 15 17 17 17 16 15 15 14 14 14 13 12 11 10 9 8 8 7 7 7 7 6 5 5 4 4 3 3 3 4 6 7 10 10 10 11 12 12 11 12 10 9 11 12 11 9 10 10 9 8 8 10 8 6 7 8 7 5 6 5 3 5 5 5 5 4 4 3 2 3 5 7 7 7 7
17 15 15 16 17 18 16 16 17 14 14 14 14 15 14 14 13 13 14 13 12 11 11 10 9 9 8 8 8 7 7 6 5 5 4 3 4 4 4 6 7 8 10 11 13 12 13 14 14 13 12 8 8 9 8 7 7 7 7 7 8 10 9 5 7 10 8 5 5 5 4 5 4 4 5 5 5 5 3 3 4 6 7 7 8
17 15 15 15 16 17 15 16 17 15 15 14 13 14 14 14 13 12 12 11 11 11 11 10 8 9 8 8 7 7 6 5 5 4 3 3 4 5 6 8 9 10 10 12 15 16 16 16 15 14 13 9 6 7 8 7 6 7 7 8 9 11 11 8 7 10 10 7 6 5 5 5 4 4 4 5 5 6 5 3 4 6 7 7 7
16 15 15 15 17 17 17 18 17 16 16 15 14 14 14 13 12 12 12 11 11 10 10 9 8 8 7 7 7 6 6 5 5 4 4 4 4 6 8 10 11 11 11 13 15 17 16 16 16 14 12 9 7 7 7 7 6 7 7 8 9 10 10 10 10 10 10 8 6 5 6 5 5 5 3 4 6 6 6 5 4 5 6 7 7
16 16 16 17 18 17 18 19 18 17 16 16 14 14 14 13 12 12 12 11 11 11 10 10 10 9 8 7 7 7 6 6 5 5 4 4 5 7 9 11 12 12 12 13 13 14 14 15 14 12 10 9 7 7 7 8 7 8 8 7 8 9 10 12 13 11 9 8 7 5 5 5 4 5 4 5 6 7 7 6 5 5 6 7 7
17 16 16 17 18 18 17 18 19 17 16 16 15 14 14 14 13 12 12 12 12 12 12 11 10 9 9 8 8 7 7 6 6 6 5 4 5 7 8 10 12 12 12 12 12 12 12 12 13 11 9 8 8 9 10 11 10 9 9 8 8 8 10 12 13 13 11 9 8 6 5 5 5 5 6 6 7 7 7 7 7 7 7 7 8
17 16 17 18 18 18 18 19 19 17 17 16 16 15 14 14 13 12 12 12 12 13 12 11 11 10 10 9 8 8 7 7 6 6 5 6 7 7 8 10 11 11 11 11 11 10 10 10 10 9 8 8 9 11 13 12 12 11 10 8 7 7 8 10 12 13 12 11 10 8 6 4 5 6 7 8 8 8 8 8 8 8 8 8 8
16 16 18 19 18 19 19 19 19 19 18 17 17 16 15 14 13 13 12 12 13 13 12 12 12 11 10 9 9 8 8 7 7 6 6 7 8 9 9 11 11 11 10 10 9 8 8 7 7 7 7 7 9 11 13 13 12 11 10 9 8 8 8 10 11 11 12 13 11 10 8 5 5 7 8 9 9 10 10 10 9 9 9 9 9
16 15 18 19 20 21 20 20 20 20 19 18 17 16 16 16 15 15 13 13 13 13 13 12 12 11 10 10 9 9 8 8 8 7 7 7 9 10 11 11 11 10 9 8 8 9 7 6 5 5 5 5 7 10 13 13 12 10 10 10 10 9 9 10 11 11 11 12 12 12 10 7 6 7 8 10 11 12 12 12 11 10 10 10 10
16 15 17 19 21 21 21 20 21 20 20 19 17 17 17 17 17 16 15 14 13 13 14 13 12 11 11 11 10 10 9 9 9 9 8 8 10 11 11 11 10 9 9 9 9 9 9 7 6 5 5 4 5 10 14 15 13 11 10 9 10 10 7 8 9 11 11 11 11 11 10 8 6 7 8 10 11 12 13 14 13 11 11 11 11
17 17 18 19 21 22 21 21 21 20 20 19 18 17 17 17 17 17 16 16 15 14 14 14 13 12 12 12 11 11 11 11 11 11 10 10 11 11 12 11 10 9 8 8 9 10 10 8 7 6 6 6 7 12 15 16 15 12 12 9 9 9 6 7 8 9 11 11 10 9 9 8 7 7 8 9 10 11 14 15 14 13 12 11 12
18 18 18 18 21 22 21 21 21 20 20 19 18 18 17 17 17 17 17 16 16 15 14 15 14 13 13 12 12 12 12 12 12 13 12 11 11 11 11 10 9 9 9 8 9 9 9 9 8 7 8 9 11 14 16 17 16 13 13 11 9 9 7 7 7 7 10 10 10 9 7 7 7 7 8 9 9 10 12 15 15 14 13 13 13
18 18 17 17 19 21 22 21 20 21 20 20 19 18 17 17 17 18 17 17 16 15 15 15 14 14 14 13 13 12 12 12 13 13 12 11 10 10 9 10 9 9 9 9 9 8 9 8 8 9 10 12 13 14 16 16 16 13 12 12 10 9 7 6 6 7 8 8 8 8 7 6 6 6 7 7 9 11 11 13 15 16 15 15 16
18 17 17 17 18 20 21 21 21 21 20 20 19 19 18 17 17 18 18 17 17 16 16 15 15 15 15 14 13 13 13 12 12 11 11 10 9 9 9 9 9 9 9 9 9 8 8 7 8 9 11 14 13 14 15 14 12 11 10 11 9 9 7 5 5 6 7 6 6 7 7 7 7 7 6 6 8 11 11 11 13 15 16 17 17
18 17 18 18 18 19 20 21 21 21 20 19 20 20 18 19 19 18 18 18 17 17 17 17 16 16 15 14 13 13 13 13 12 11 10 10 9 9 9 9 9 9 9 9 9 8 8 8 9 10 12 13 11 11 13 12 9 8 9 9 9 8 8 7 6 7 7 7 6 6 7 7 8 8 7 7 8 9 10 12 13 14 16 17 18
19 19 19 18 18 19 19 20 21 21 21 18 18 19 19 19 19 19 19 19 18 18 17 17 18 18 16 15 14 14 14 14 13 12 11 11 10 10 9 9 9 9 9 9 9 9 8 9 10 11 12 11 9 9 10 9 7 7 8 8 8 8 8 9 8 8 8 8 7 7 8 8 8 8 9 9 9 10 11 12 13 13 15 16 17
18 19 19 18 18 18 19 19 20 21 21 19 18 19 18 18 18 18 19 19 19 19 18 18 18 18 16 16 16 15 15 15 14 14 12 11 10 10 10 9 9 9 9 9 9 9 9 9 10 10 10 9 8 8 8 7 6 6 7 7 8 8 9 9 8 8 8 7 8 8 8 9 9 9 9 9 10 12 12 11 12 13 14 16 17
17 17 19 21 20 19 19 19 21 21 21 20 18 18 18 17 18 18 18 18 19 19 19 18 18 17 16 16 16 16 16 15 14 13 13 12 12 12 11 10 9 9 9 9 8 8 8 8 8 7 7 8 6 5 5 6 6 6 7 7 8 8 9 8 8 8 7 7 7 7 7 8 9 9 9 10 10 11 12 12 11 11 12 14 16
17 18 22 24 24 22 22 21 21 21 20 21 20 19 18 17 18 18 17 18 18 19 18 18 18 17 17 17 16 15 15 14 14 13 13 13 12 13 13 11 9 8 8 8 7 7 7 7 7 6 5 5 4 3 4 5 6 7 7 8 7 8 8 8 8 7 6 6 6 5 5 6 7 8 9 10 10 11 11 11 10 9 8 9 11
20 21 24 26 26 26 25 23 22 22 21 22 22 20 19 19 19 19 18 18 18 18 18 18 17 17 17 18 16 15 14 14 14 14 14 13 13 15 14 10 8 7 7 8 6 6 6 5 4 4 4 4 3 4 4 5 7 7 7 7 7 7 7 7 7 5 5 5 5 4 4 4 5 6 7 8 9 10 10 9 9 8 7 7 8
22 23 25 27 27 27 27 25 23 24 24 23 23 22 20 20 20 18 16 15 16 16 16 17 18 19 19 19 17 16 16 16 16 16 16 15 15 16 13 8 6 6 7 6 5 4 3 3 2 2 3 3 4 5 5 5 7 7 7 6 6 6 5 5 5 4 5 6 5 5 4 3 2 3 4 5 6 7 8 8 7 6 7 7 8
23 25 27 28 28 27 27 27 25 24 24 25 25 23 21 20 19 18 16 15 15 14 15 17 18 17 17 18 18 18 18 17 17 17 18 18 17 14 9 5 5 6 6 4 3 3 2 2 2 2 3 3 4 5 5 5 6 7 6 6 5 4 4 5 5 4 5 5 6 7 7 6 5 3 2 1 3 4 5 6 5 4 4 5 7
21 24 27 28 28 28 27 27 27 25 25 27 26 23 21 19 18 18 17 17 18 17 18 18 16 16 17 18 19 19 18 17 16 17 19 18 16 12 8 6 6 6 5 3 2 2 2 2 3 3 3 3 3 4 4 4 5 6 6 5 4 4 4 5 4 4 4 5 6 6 7 7 7 6 5 4 3 3 3 3 4 3 4 5 5
21 22 25 27 28 29 28 28 28 27 27 26 24 21 19 17 16 16 17 19 20 18 19 18 17 18 19 18 19 20 18 17 18 19 19 16 11 9 8 7 6 6 5 3 2 2 2 3 4 4 3 3 2 2 3 3 4 6 5 4 3 4 4 5 3 4 5 5 7 6 6 6 7 7 7 6 6 5 3 2 2 2 3 4 4
20 21 23 26 28 29 29 29 30 29 29 26 22 21 19 17 16 16 18 20 20 19 19 20 19 18 18 18 19 19 17 17 18 19 17 12 10 10 8 7 6 6 4 3 2 3 3 3 4 4 3 3 1 1 2 2 3 4 4 4 3 4 3 5 4 4 5 5 6 7 6 6 6 6 6 6 6 6 6 5 4 3 3 4 5
21 22 23 25 28 29 29 31 31 31 30 27 25 22 20 20 20 19 21 21 20 20 20 21 20 17 16 16 17 16 13 13 14 15 12 9 10 10 8 7 6 6 4 3 3 3 3 4 4 3 3 3 2 2 2 2 1 2 3 2 2 4 3 3 3 4 5 5 6 7 7 7 7 6 6 6 6 5 5 5 5 4 4 5 6
21 23 25 25 26 28 29 31 32 31 30 27 26 24 20 22 24 22 21 20 19 20 20 21 20 18 15 11 12 13 11 10 11 11 10 10 10 9 8 7 6 6 4 3 3 3 4 5 4 4 3 3 2 2 2 2 1 0 0 1 0 1 3 1 2 2 3 5 6 8 8 9 10 9 7 7 7 6 6 5 4 5 5 5 5
20 22 24 24 25 28 31 32 32 33 31 26 27 26 21 23 25 23 21 20 19 19 19 19 19 18 14 10 10 12 11 9 9 11 11 11 10 9 7 7 6 6 4 4 4 4 5 5 5 5 4 3 3 2 3 3 2 1 1 1 0 1 2 0 3 0 1 3 6 8 9 10 12 12 11 9 8 8 7 6 5 6 6 6 6
20 22 24 26 28 31 34 34 33 34 32 28 28 25 21 21 21 20 18 16 16 16 14 15 14 13 12 11 11 11 11 9 10 12 12 11 10 9 7 7 6 5 5 6 6 6 6 5 5 5 4 4 3 2 3 3 3 2 2 1 0 1 1 3 4 1 0 2 4 7 8 9 12 14 14 11 10 9 8 8 7 8 8 7 7
22 24 26 30 33 33 34 34 34 34 32 31 30 24 20 19 18 17 15 14 14 14 14 14 14 14 14 15 12 10 11 11 11 12 12 12 10 7 7 7 6 6 6 6 6 6 6 4 4 3 2 3 3 2 3 3 3 3 4 3 2 2 1 3 3 1 1 1 2 5 7 8 10 12 13 11 11 10 9 9 9 9 10 10 10
24 24 26 30 34 34 35 35 35 35 34 34 31 23 20 20 20 22 20 18 17 16 18 18 16 15 14 14 11 9 11 13 13 14 13 12 9 6 7 7 6 6 6 6 6 6 5 3 3 3 2 2 2 2 2 3 3 4 4 4 2 1 1 1 1 2 2 0 1 3 5 8 8 8 9 9 9 9 9 9 9 10 10 11 12
24 23 25 29 33 35 36 35 36 36 35 35 31 23 20 19 21 25 24 23 20 20 22 20 17 15 12 11 9 9 12 14 14 15 14 11 8 6 8 7 7 6 6 6 6 6 5 4 3 3 2 2 2 2 2 2 3 4 4 3 2 1 0 1 1 1 2 2 2 1 4 8 6 5 7 7 7 7 8 8 8 9 9 10 11
23 24 27 30 34 36 36 36 37 37 36 36 33 26 21 21 25 28 26 25 24 22 21 19 17 13 10 10 11 10 12 14 14 15 13 10 8 7 8 8 7 6 6 6 5 6 6 6 4 2 2 3 3 3 3 3 3 3 3 3 2 1 1 1 2 1 1 2 3 2 5 7 5 4 5 5 6 5 5 6 7 8 9 9 10
23 26 29 31 33 35 36 37 37 37 36 36 35 29 23 23 29 31 28 27 25 22 21 18 14 10 9 13 13 11 12 14 15 14 13 10 8 8 8 7 6 7 7 5 6 6 6 5 4 2 2 3 2 2 3 3 3 2 2 3 2 1 1 1 1 1 1 2 3 4 6 6 6 5 4 5 6 4 3 5 5 6 7 9 11
23 26 27 28 31 34 36 38 38 38 37 36 35 30 24 22 29 34 31 28 26 24 21 18 14 11 13 16 15 14 15 16 16 15 13 11 10 9 8 7 7 7 7 7 6 5 4 4 4 3 3 3 3 3 3 3 4 3 2 2 2 1 2 2 2 2 2 3 4 6 7 7 7 7 5 7 8 5 4 4 3 5 6 8 10
Wind_Direction
161 141 150 155 153 150 147 145 148 149 142 139 140 142 140 137 135 135 138 138 135 135 137 136 134 135 136 138 138 139 138 138 137 134 130 127 122 117 114 113 108 101 94 87 84 82 80 77 73 67 62 60 57 57 59 55 50 46 44 53 59 51 49 58 63 71 78 89 103 97 87 93 96 98 96 95 97 97 97 96 98 102 108 114 120
157 145 149 152 152 151 147 145 145 147 144 141 141 142 142 140 136 135 137 138 137 135 139 140 139 137 139 139 139 139 139 140 138 135 131 126 123 118 115 113 108 102 94 85 80 77 76 73 69 62 60 57 53 52 54 53 51 51 49 48 48 44 41 47 54 64 78 90 99 103 99 101 101 99 97 95 93 95 99 96 100 106 109 117 123
149 146 149 150 150 150 148 148 147 146 146 146 145 145 146 144 139 136 135 137 138 137 140 143 143 141 142 141 139 139 138 139 137 134 131 128 127 123 121 117 111 103 94 85 78 73 72 69 65 59 57 54 51 49 47 50 53 55 54 53 46 39 33 37 46 50 66 85 89 102 105 100 100 94 90 92 94 95 97 97 103 109 114 121 121
142 143 148 148 148 148 150 151 149 147 147 149 149 150 149 146 142 140 137 135 138 140 143 145 147 146 143 141 138 137 135 135 134 135 136 135 133 131 126 116 108 99 90 83 78 73 69 66 64 59 53 51 51 49 46 48 52 58 58 57 53 47 42 38 44 43 51 70 74 94 102 93 91 84 79 90 96 93 93 101 106 110 118 123 120
147 146 147 149 150 148 149 150 152 151 149 150 151 153 151 147 145 145 143 139 139 142 146 147 148 147 144 141 136 134 132 131 135 139 139 140 139 137 126 112 102 90 82 77 74 70 66 64 66 61 52 49 50 48 48 44 40 51 57 57 55 51 57 99 92 57 74 42 33 57 69 70 73 73 82 97 95 84 93 107 108 110 117 122 123
153 150 147 150 152 150 148 146 154 158 155 152 152 155 153 149 148 147 146 144 142 142 146 147 146 145 143 140 136 135 132 134 140 144 143 141 139 133 119 104 90 82 76 71 67 63 62 65 64 56 49 43 43 40 43 42 36 40 43 50 52 50 59 105 192 220 130 81 338 13 26 24 54 74 97 112 103 86 98 112 108 110 115 118 119
157 152 152 151 150 150 148 145 153 161 160 155 152 156 155 151 150 150 148 146 145 144 144 145 144 142 142 141 138 139 138 142 147 147 143 137 132 120 106 91 79 75 73 70 65 58 57 61 54 50 48 41 38 28 30 31 28 36 36 40 42 38 41 77 194 243 145 129 305 358 5 1 36 71 114 123 115 99 105 114 112 111 114 117 116
161 155 155 152 149 151 152 150 152 160 163 160 156 157 157 155 152 150 148 147 146 144 144 145 144 142 145 144 142 144 145 148 149 146 144 138 128 114 100 85 74 72 73 71 64 56 49 48 41 43 45 40 39 28 26 20 12 25 24 24 32 28 16 17 28 266 205 152 192 347 346 346 11 42 103 121 115 107 109 118 118 116 119 119 120
164 158 155 150 149 156 158 157 154 158 166 166 162 160 157 154 151 149 147 145 144 144 146 148 149 148 148 146 145 150 151 150 147 144 146 145 133 121 108 86 76 79 77 67 56 51 42 36 33 34 35 33 35 34 33 20 9 11 6 2 12 21 16 15 24 28 34 7 324 322 324 328 351 20 76 117 115 111 119 125 125 123 125 125 126
165 160 156 148 149 161 160 157 158 157 160 162 162 161 157 152 150 148 145 145 146 145 146 149 152 152 150 147 149 154 151 148 148 150 156 155 145 133 116 102 97 91 77 64 49 40 33 29 28 24 28 28 24 27 27 25 18 5 358 355 357 4 12 22 28 35 41 17 337 309 293 300 326 359 62 120 118 116 133 138 135 134 132 129 131
165 162 156 150 152 160 155 154 160 156 151 155 161 163 158 151 149 148 146 148 150 149 148 149 150 152 152 150 155 156 150 151 156 162 164 163 157 143 138 145 119 86 66 54 39 27 25 27 28 18 18 20 10 3 5 21 24 6 359 0 358 353 358 18 25 25 31 26 1 317 266 275 295 310 217 147 129 129 156 152 143 141 137 136 136
164 165 160 154 157 160 155 152 155 153 150 155 161 162 158 151 149 147 148 151 151 151 150 150 152 155 155 155 159 157 157 162 163 167 165 170 175 172 184 196 265 10 26 32 30 25 25 27 27 17 8 4 358 348 352 6 3 358 3 7 7 357 356 18 23 13 15 18 12 341 255 260 257 249 237 187 155 150 170 163 153 146 143 147 142
159 165 165 159 161 162 156 149 150 151 150 156 159 158 157 154 150 149 151 153 153 154 155 156 159 159 158 160 162 160 164 167 166 170 170 179 184 195 219 253 296 341 358 12 27 28 23 19 16 14 5 344 338 342 348 352 343 348 358 0 7 8 6 21 26 9 4 4 1 351 257 253 241 245 239 209 171 158 177 173 168 155 150 155 151
154 161 163 160 162 159 155 150 149 149 151 157 159 155 153 154 151 151 153 156 157 156 159 161 160 160 161 165 165 164 169 171 171 177 184 191 196 219 244 286 322 346 357 10 18 17 9 10 9 9 4 330 330 345 346 344 336 337 351 355 356 9 17 10 17 11 6 3 353 346 280 256 237 248 244 221 184 165 184 181 182 167 155 159 161
150 156 156 158 161 157 153 151 150 148 154 159 159 155 150 153 153 154 156 158 160 159 162 164 162 163 165 167 168 168 173 175 175 183 196 203 215 236 268 306 334 345 0 11 3 358 357 359 358 357 358 330 332 344 339 333 327 324 339 358 352 8 23 358 0 10 6 4 351 337 301 276 238 244 244 229 198 173 186 181 186 179 163 164 167
151 153 153 157 159 159 157 156 155 152 159 159 156 155 151 156 160 160 161 160 163 165 168 168 165 168 166 163 167 172 176 178 183 192 205 216 232 254 283 312 337 347 1 1 346 351 350 342 346 351 354 335 330 334 332 322 316 324 337 358 357 4 19 357 353 2 354 355 355 347 312 298 250 240 238 231 211 188 182 177 184 185 175 170 170
154 153 155 158 157 159 157 155 156 154 159 157 152 153 153 158 164 163 164 165 169 168 167 166 166 170 169 169 173 179 183 186 192 202 217 232 252 275 295 319 337 353 3 346 332 346 340 338 348 351 356 346 327 323 326 318 308 326 340 351 354 354 7 357 341 349 353 347 349 1 339 305 267 240 234 225 214 210 193 175 183 185 183 180 175
157 155 158 159 158 157 154 151 153 156 157 154 151 153 155 160 164 165 167 169 169 168 167 169 170 172 176 180 183 187 190 195 204 217 229 252 281 292 307 326 341 359 2 338 329 338 336 342 351 350 356 353 328 320 333 337 323 338 353 357 358 352 353 352 339 345 356 351 342 357 343 308 274 233 221 216 207 216 214 185 187 186 187 190 184
161 159 162 161 160 157 157 156 155 160 162 160 159 159 161 166 167 168 170 171 172 173 173 176 175 176 184 187 190 194 199 209 216 228 248 279 293 303 325 342 352 0 357 336 329 332 336 346 351 353 358 355 341 340 356 5 347 345 1 6 3 356 349 346 343 344 351 351 350 353 332 306 274 230 205 208 206 214 222 205 196 194 192 194 193
166 165 168 167 166 163 163 165 164 166 169 168 166 166 167 170 172 173 173 173 177 178 177 181 183 187 196 195 199 201 204 217 223 240 263 283 303 329 344 351 351 350 345 333 326 328 335 344 350 355 357 357 359 3 8 11 356 348 1 2 356 353 345 338 338 342 345 343 347 345 326 311 273 240 206 202 210 214 223 220 208 205 200 198 200
171 171 173 173 173 172 170 172 173 173 176 173 171 173 172 174 178 179 178 180 184 184 186 190 192 198 204 202 206 207 209 217 228 245 262 288 323 342 345 345 341 337 337 332 328 330 335 341 349 355 356 359 8 12 12 8 1 357 359 352 348 346 335 330 331 335 335 329 331 331 321 319 288 247 225 210 214 215 222 227 220 217 211 205 206
175 175 177 179 180 179 177 178 177 178 183 179 175 178 178 179 182 180 180 186 190 192 195 198 200 203 203 204 208 211 215 223 235 249 269 298 316 331 334 335 332 329 334 333 329 330 333 341 350 358 1 4 9 11 10 8 4 2 358 351 346 336 326 323 322 325 326 323 320 318 316 313 302 267 241 228 222 221 223 225 226 228 224 216 214
178 179 181 183 185 183 182 184 182 183 188 186 182 183 186 186 184 181 181 187 193 196 200 202 205 205 204 208 211 215 223 231 240 253 278 301 309 319 325 326 326 326 330 328 325 329 338 348 353 359 6 12 16 15 11 6 359 357 355 352 346 328 320 319 318 319 317 315 312 311 308 287 286 280 256 243 235 231 229 227 229 233 233 229 224
182 183 184 184 187 187 187 188 188 189 191 192 188 186 190 189 188 190 189 192 196 198 202 205 208 209 210 214 217 223 232 240 247 258 279 300 311 318 323 325 327 329 332 331 333 341 348 355 357 360 10 19 24 22 15 6 357 353 348 343 334 321 314 313 314 315 309 307 306 306 305 281 261 266 261 254 246 240 237 235 233 231 234 236 232
184 185 187 186 189 190 191 191 192 193 195 197 195 193 194 192 192 196 196 197 202 204 207 211 213 215 219 223 226 230 237 244 250 259 275 296 311 319 324 328 331 332 335 339 344 350 352 357 359 0 11 23 28 19 12 4 357 350 343 334 326 319 314 309 306 305 303 300 300 301 302 291 258 251 254 255 251 246 242 241 238 234 234 237 238
188 189 190 190 190 192 194 194 195 196 198 200 199 200 199 198 198 198 200 202 207 210 212 216 218 220 224 228 233 237 242 246 249 257 272 292 307 316 322 326 329 330 331 336 344 352 352 352 353 353 357 12 13 1 359 357 353 347 339 336 329 322 317 310 301 297 297 294 292 295 296 292 271 250 250 253 251 246 243 243 241 238 236 236 239
191 193 193 192 192 193 196 197 197 198 199 202 202 203 203 204 205 203 204 207 210 214 216 219 221 224 226 229 234 241 246 250 252 258 274 289 300 311 318 321 324 323 323 328 336 347 350 350 353 354 354 352 344 341 345 347 346 340 333 331 325 318 316 311 304 296 294 293 289 289 292 290 278 260 253 255 256 249 244 243 243 243 241 239 241
195 196 194 195 195 196 197 199 200 199 200 203 204 205 204 206 208 207 208 210 213 216 219 222 225 227 229 231 234 241 246 251 255 263 276 286 295 304 312 315 317 318 318 320 325 335 343 349 355 355 349 342 337 336 337 339 338 335 326 321 318 314 313 309 308 303 297 293 287 286 288 285 279 270 261 257 259 255 246 242 243 245 246 244 241
199 197 195 197 199 199 199 201 202 202 202 204 205 206 207 207 209 210 212 214 216 219 222 224 227 229 230 231 232 240 245 251 258 267 278 285 293 299 306 310 311 314 316 314 313 321 332 340 346 344 339 337 335 333 333 334 334 332 321 315 314 312 312 314 317 317 310 298 284 279 277 276 272 267 265 259 258 258 250 242 241 243 247 249 247
200 198 197 199 201 201 202 203 203 204 204 205 207 207 207 209 211 213 215 218 219 223 226 224 227 230 230 230 232 239 246 253 260 267 277 283 290 294 300 306 309 311 314 313 306 307 317 323 328 331 332 333 332 329 330 332 332 330 321 315 312 308 308 314 318 322 325 314 290 274 267 265 262 259 259 257 260 265 265 255 245 241 244 250 254
200 198 199 201 202 202 204 205 206 206 206 208 210 209 210 211 213 216 218 219 220 224 228 228 229 230 230 231 235 242 249 257 263 267 276 280 284 291 299 304 307 310 311 312 307 301 304 309 318 325 328 329 329 329 330 334 334 331 326 321 317 312 310 311 311 316 322 317 302 282 268 262 259 258 258 257 260 265 267 262 251 244 242 246 254
200 199 200 201 202 203 205 207 208 208 208 209 211 212 213 215 217 219 222 223 223 225 229 231 232 233 232 235 239 244 252 260 266 269 272 274 280 288 296 301 306 310 311 310 306 300 300 306 316 321 325 328 328 330 334 338 338 335 329 323 321 318 314 313 313 314 316 315 309 295 282 274 268 263 261 259 259 261 261 260 256 250 246 245 248
201 202 201 202 203 205 207 209 210 211 211 210 212 215 215 219 221 222 225 226 227 228 230 233 235 236 236 238 241 245 251 259 266 270 269 269 277 284 289 296 302 310 314 311 305 301 302 306 311 316 322 327 330 333 339 343 341 337 329 322 322 323 320 320 321 320 321 318 313 305 295 287 281 277 271 263 257 259 262 262 260 258 254 250 248
198 200 202 204 206 206 207 210 212 212 213 212 213 215 216 219 222 225 228 229 231 232 232 235 237 238 240 242 244 248 254 259 263 266 267 268 273 276 279 287 300 314 314 307 302 296 297 299 302 311 319 325 333 342 346 346 344 338 330 326 327 326 326 326 325 326 328 325 321 316 304 293 287 284 281 274 264 260 263 266 268 269 263 257 257
196 199 205 209 210 211 211 211 213 212 212 214 214 215 217 220 224 228 232 233 234 235 236 238 239 241 244 247 249 254 260 261 259 260 261 263 266 268 273 284 296 314 310 297 291 282 282 287 293 307 316 321 329 340 344 342 340 337 333 330 329 329 330 329 330 333 335 340 343 336 321 302 290 284 280 277 274 268 266 268 268 268 270 267 268
199 203 208 212 214 216 216 214 214 213 212 214 216 218 221 225 228 231 234 236 236 237 239 239 240 242 245 248 252 258 261 260 259 257 257 258 262 263 268 283 294 303 298 284 276 270 272 277 288 304 310 316 312 314 326 331 333 335 336 335 332 334 335 335 339 346 1 19 19 6 352 320 294 282 277 275 277 274 268 267 265 264 275 282 281
203 206 210 213 215 217 219 218 216 215 216 217 218 220 223 228 232 234 235 237 237 237 239 240 241 243 245 249 253 257 258 258 260 260 260 260 265 271 272 275 281 281 277 269 262 263 267 269 278 286 291 301 303 306 315 325 327 329 340 344 343 346 351 359 2 13 31 40 41 37 33 10 329 297 281 276 279 278 270 265 264 267 276 283 285
204 209 213 217 217 217 219 220 219 217 219 220 220 222 225 229 231 233 234 235 238 237 238 241 242 242 245 250 255 259 261 261 258 257 262 263 267 278 279 259 253 256 257 255 257 255 239 237 256 266 280 290 295 304 315 324 320 322 340 353 1 16 28 23 25 37 39 41 48 51 50 45 35 19 354 301 288 287 280 266 257 267 292 303 299
204 209 214 219 219 219 220 221 221 220 221 222 221 222 224 227 227 230 233 237 241 240 241 242 241 242 247 254 259 263 266 267 262 256 261 267 269 272 262 239 236 239 238 235 249 248 226 234 255 267 281 286 287 297 310 316 311 316 337 355 22 68 57 35 42 49 42 42 47 50 48 51 52 47 47 46 28 352 309 278 267 275 302 319 319
205 207 213 218 219 220 220 222 223 222 223 222 219 219 221 223 224 228 233 237 242 242 244 245 244 248 252 254 259 263 265 265 263 259 262 269 265 247 234 224 224 229 230 224 233 241 234 244 257 263 270 280 282 277 291 304 307 313 331 0 57 113 74 48 64 56 51 52 44 43 45 49 55 57 59 58 52 45 42 33 347 306 298 313 329
207 207 209 215 219 220 220 220 222 222 223 220 215 215 217 219 220 225 231 236 242 244 245 249 251 255 256 254 256 260 262 262 258 257 262 257 231 219 220 218 220 230 234 230 243 258 250 242 249 257 261 269 262 245 275 294 306 318 334 8 80 135 98 61 74 61 56 59 45 42 45 45 47 50 53 54 53 52 51 51 41 21 346 333 331
206 207 209 213 217 219 219 220 222 221 222 220 216 214 216 220 223 227 234 237 242 245 247 251 254 258 260 256 255 256 259 262 252 246 247 226 210 213 212 213 225 237 238 242 259 268 254 236 234 242 247 254 247 242 261 271 288 354 343 343 87 147 144 72 61 63 60 59 50 44 47 47 44 41 42 43 42 44 45 42 38 28 10 357 343
204 207 210 212 215 217 218 221 222 221 221 220 218 217 217 225 230 234 239 242 246 249 250 252 255 260 260 250 248 252 256 254 235 223 216 203 205 210 209 221 240 246 247 253 253 250 248 242 240 233 225 235 248 232 204 217 241 91 289 264 21 193 190 155 30 59 67 58 53 49 52 50 46 46 43 42 41 44 48 43 35 31 23 15 4
203 205 207 208 211 215 219 221 222 223 222 221 222 221 221 228 232 234 239 244 248 252 253 254 256 259 256 244 242 249 254 240 208 202 205 203 205 208 218 238 247 254 262 262 259 255 252 245 243 237 218 209 218 214 185 189 222 225 246 212 48 275 207 327 347 12 87 55 53 50 53 49 48 51 47 43 45 47 49 49 46 42 37 31 25
206 206 206 209 214 218 221 222 223 224 224 223 224 222 222 226 228 230 235 240 246 249 250 249 247 249 246 240 238 241 246 226 195 201 208 204 205 210 230 245 248 259 265 270 276 271 259 244 243 241 217 201 197 210 206 199 217 238 260 265 281 270 239 350 335 273 67 26 45 46 49 46 47 51 49 46 48 48 47 45 46 44 40 36 31
209 210 210 214 219 221 223 224 224 225 224 226 226 221 220 220 219 220 222 227 234 236 237 238 241 246 245 240 235 230 230 215 200 206 207 203 206 219 249 259 259 261 261 271 277 271 264 251 254 255 223 207 196 211 228 217 227 239 243 251 277 296 323 339 326 315 339 18 47 36 42 42 44 49 47 46 45 45 48 47 48 47 46 45 42
211 211 212 215 220 221 223 224 225 226 226 228 226 219 218 218 218 221 222 223 226 230 237 242 246 250 246 239 231 223 219 212 209 210 204 202 208 238 264 263 258 258 262 268 269 271 272 256 261 268 257 240 209 222 246 236 237 234 225 228 233 257 316 326 322 329 333 45 40 25 37 33 35 44 42 43 42 41 48 51 51 50 48 48 47
209 208 210 215 219 221 223 225 226 227 228 228 225 217 215 215 218 223 225 226 227 233 241 244 246 243 236 231 225 221 217 212 209 206 202 203 210 242 260 256 253 257 262 266 272 284 287 275 274 274 281 287 266 256 258 257 253 230 209 207 204 170 35 98 107 339 319 308 332 9 17 10 19 41 38 38 38 38 43 43 39 36 35 35 35
205 205 210 216 220 222 224 225 226 227 228 228 226 220 217 219 223 224 225 228 230 234 238 240 240 233 222 223 222 217 213 208 205 202 201 204 213 237 249 246 247 252 256 263 276 284 287 285 280 273 289 294 281 264 253 258 258 231 199 191 177 147 163 145 146 193 250 284 312 331 338 347 359 17 24 24 24 29 37 31 24 22 22 21 21
202 207 212 215 219 221 223 225 226 228 227 228 226 221 218 221 226 227 225 227 229 230 233 233 231 220 210 217 217 209 205 202 199 198 201 205 214 228 232 231 237 245 248 255 265 272 276 272 257 239 256 266 252 235 235 247 244 214 176 175 171 176 226 215 211 234 238 262 284 304 318 333 337 339 355 359 357 357 2 16 20 18 18 17 14
202 206 208 211 216 219 222 224 227 228 227 228 226 222 218 219 226 228 226 227 228 228 228 225 221 215 212 214 212 208 204 199 197 196 199 203 211 218 217 219 230 238 243 248 251 250 238 225 210 204 209 207 209 211 217 234 237 217 175 178 211 245 264 280 291 284 274 274 286 302 314 327 322 314 318 330 335 331 321 332 354 0 2 2 2
Height
819 820 822 823 825 825 827 828 830 831 832 833 834 835 836 837 837 837 838 839 840 840 841 842 843 843 844 844 846 847 848 849 849 850 850 851 851 852 853 853 854 855 855 855 856 855 856 856 856 856 856 857 857 857 857 858 858 858 858 857 857 857 856 856 855 855 856 856 856 856 856 857 857 856 856 856 856 856 856 856 857 857 857 857 857
819 820 822 823 825 826 828 828 831 832 833 834 835 837 838 839 839 839 840 841 842 842 843 844 844 845 845 846 847 848 849 850 850 851 851 852 853 854 854 855 856 856 857 857 857 857 857 858 858 858 858 858 858 858 858 859 859 859 859 858 858 858 858 857 857 857 857 857 857 857 857 858 858 857 857 856 856 856 856 857 857 858 858 857 858
820 821 822 824 826 827 829 829 831 833 834 835 837 838 839 841 840 841 842 843 843 844 845 845 846 846 847 848 848 849 851 851 852 852 853 854 855 856 856 857 857 858 858 859 859 859 859 859 860 860 860 859 859 859 859 859 858 858 858 858 858 858 858 859 859 859 859 859 858 858 858 859 859 858 858 858 857 857 857 857 857 858 858 858 858
821 822 823 824 826 828 830 831 832 834 835 836 838 839 840 842 841 842 843 844 844 845 846 846 847 848 849 849 850 851 852 853 854 854 855 856 857 857 858 858 859 859 860 860 860 860 860 861 861 861 861 860 860 860 859 859 858 858 858 858 857 857 858 859 860 860 861 860 859 859 859 860 860 859 859 859 858 858 858 857 858 858 858 859 859
823 823 824 825 827 829 830 832 833 835 836 837 839 840 841 842 843 843 844 844 845 846 847 848 849 850 851 851 852 853 854 855 855 856 857 858 858 859 859 859 860 861 861 861 861 861 861 862 862 862 862 861 861 860 859 859 859 860 859 859 859 858 857 858 859 859 860 861 861 860 860 860 860 860 860 860 860 859 859 858 859 859 859 859 860
825 825 826 827 828 829 831 833 835 836 837 839 840 841 842 843 844 844 845 845 846 847 848 849 850 851 852 853 854 854 855 856 857 858 858 859 859 860 860 861 861 862 862 862 862 862 863 863 863 863 862 862 862 861 860 860 861 861 861 860 859 859 858 859 859 858 858 860 861 861 861 861 861 861 860 861 861 860 860 860 860 860 860 860 860
825 827 828 829 830 831 832 834 835 837 839 840 841 842 843 843 845 845 846 847 848 849 850 851 852 853 854 855 856 856 857 857 858 859 859 860 860 861 861 862 862 863 863 863 863 863 864 864 864 864 863 863 862 862 862 862 862 861 861 861 860 860 859 859 859 859 858 858 859 860 861 861 861 861 861 861 861 861 861 861 861 861 861 861 861
825 828 829 831 832 832 834 835 836 838 840 842 842 843 843 844 845 846 847 848 849 850 851 852 853 854 855 856 857 858 858 859 859 859 860 860 861 861 862 863 863 864 864 864 864 865 865 864 864 865 864 864 863 863 863 862 862 862 862 862 861 860 860 860 859 860 860 858 858 859 860 861 862 862 862 862 862 862 862 862 862 862 862 862 862
825 828 830 832 833 834 835 836 837 839 841 842 843 844 844 845 846 847 849 850 850 851 852 853 854 856 856 858 858 859 859 860 860 860 861 861 862 862 863 863 864 865 865 865 866 866 866 865 865 866 865 865 864 863 863 863 862 862 862 862 861 860 860 860 859 859 860 859 859 859 860 861 862 862 862 862 862 862 862 863 863 863 863 863 864
826 828 831 832 834 835 836 838 839 840 841 843 844 845 846 846 848 849 850 851 852 853 853 855 856 857 858 859 860 860 860 861 861 861 862 862 863 863 863 864 864 865 866 867 867 867 867 866 866 867 866 865 864 863 863 863 862 862 862 862 861 860 860 859 859 859 859 859 859 859 859 860 862 863 862 863 863 863 863 863 864 864 864 864 865
827 829 831 833 834 836 837 839 840 841 842 844 845 846 847 848 849 850 851 851 852 854 855 856 857 858 859 859 860 861 861 861 861 862 862 863 863 863 864 864 865 865 866 867 868 868 868 868 868 868 868 866 864 863 863 863 862 862 862 862 861 860 859 859 858 859 859 859 859 859 860 860 861 862 863 863 863 863 864 864 864 864 865 865 865
829 830 832 834 835 837 839 840 842 843 843 844 846 847 848 849 850 851 851 852 854 855 856 857 857 859 859 860 861 861 862 862 862 862 863 863 864 864 864 865 865 866 867 868 869 869 869 868 868 868 868 867 865 864 864 864 863 862 862 862 862 860 859 859 859 859 859 859 859 859 860 860 861 862 862 863 863 864 864 864 864 864 865 866 866
831 832 832 835 836 838 840 841 842 843 844 846 847 848 849 850 851 851 852 854 855 855 856 857 858 859 860 861 861 862 862 862 863 863 863 864 864 865 865 866 866 867 868 869 869 869 869 869 868 867 868 867 866 865 865 865 864 863 862 862 862 861 860 859 859 858 859 860 859 860 860 861 862 862 862 863 863 864 864 865 865 865 865 866 867
833 833 834 835 836 839 840 842 843 844 845 847 849 850 850 851 852 852 853 854 855 856 857 858 859 860 860 861 862 862 863 863 863 863 864 864 865 865 866 866 867 868 869 869 869 869 869 869 869 868 867 867 866 865 865 866 865 864 863 862 861 861 860 858 858 858 859 860 859 860 860 861 862 862 862 863 863 863 864 865 865 865 865 866 867
834 834 835 837 837 839 840 842 843 845 846 848 850 851 851 852 853 853 854 855 856 857 858 859 859 860 861 861 862 863 864 864 864 864 864 865 865 866 866 867 867 868 868 869 868 868 869 869 869 868 867 866 866 865 865 866 866 865 863 862 861 861 860 858 857 858 859 860 860 860 860 861 861 862 863 863 863 863 864 864 865 865 866 866 867
835 836 837 838 839 840 841 843 844 846 848 849 851 851 852 853 854 854 855 856 857 858 859 859 860 861 861 862 863 863 864 864 864 864 865 865 866 866 867 867 868 868 868 868 867 867 868 868 869 868 868 866 864 864 864 866 866 865 864 861 860 861 861 858 857 858 859 860 860 860 860 861 861 862 863 863 863 863 864 864 865 866 866 867 867
835 837 838 840 841 842 843 844 846 847 849 850 851 852 853 854 855 855 856 857 858 858 859 859 860 860 861 862 862 863 864 864 864 865 865 866 866 867 867 867 868 868 869 867 865 867 868 867 868 867 868 868 865 863 865 866 866 865 864 862 860 860 861 859 858 858 859 859 859 859 859 860 861 861 862 863 863 863 864 864 865 866 866 867 868
836 838 839 841 841 843 844 845 846 848 849 850 851 852 853 854 855 856 857 857 858 858 858 859 860 860 861 862 863 863 864 864 865 865 866 866 866 867 867 868 868 869 869 866 865 866 867 866 866 866 867 868 866 865 866 866 865 865 864 863 860 859 859 859 858 858 858 859 859 859 859 860 860 861 862 862 863 864 864 864 865 866 866 867 868
838 839 839 841 842 843 845 846 847 849 850 851 852 853 854 854 855 856 856 857 857 858 858 859 860 861 861 862 863 863 864 864 865 866 866 867 867 868 868 868 868 869 870 867 865 865 865 865 865 865 865 866 866 865 865 865 865 864 863 862 860 858 858 858 858 857 857 858 859 859 859 859 860 861 861 862 863 864 864 864 865 866 866 867 868
839 840 840 841 842 844 845 847 848 849 851 851 853 854 854 855 856 856 856 857 857 858 858 859 860 861 862 863 864 864 865 865 866 866 866 867 867 868 868 867 868 869 870 869 867 866 865 865 864 864 864 865 865 864 864 864 864 863 862 861 860 859 858 857 857 857 857 858 859 860 860 859 860 860 861 862 862 863 864 864 865 865 866 867 868
839 840 841 842 842 844 845 846 848 849 851 851 853 854 855 855 856 857 857 857 857 858 859 860 861 861 862 863 864 864 865 866 866 866 866 867 867 867 867 867 867 868 869 869 868 866 865 864 863 863 864 864 864 864 864 863 863 863 861 861 860 859 858 857 856 857 858 859 859 860 860 860 860 860 860 861 862 863 863 864 865 865 866 867 868
839 840 841 842 843 844 845 846 847 849 850 851 853 854 855 855 856 857 858 858 858 859 860 860 861 861 862 862 863 864 865 865 865 866 866 866 866 866 866 866 867 867 868 868 867 866 865 864 863 863 863 863 863 863 863 862 862 861 860 860 860 859 859 857 857 857 858 859 859 860 860 859 859 860 860 861 861 862 863 863 864 865 866 867 868
838 839 841 842 843 844 845 846 847 849 850 851 853 854 855 855 856 857 858 859 859 860 860 861 861 862 862 862 863 864 864 865 865 865 865 866 866 866 866 866 866 866 867 867 867 866 864 863 862 863 863 863 863 862 862 862 861 861 860 860 860 860 859 858 858 857 857 858 858 859 859 859 859 859 860 860 861 861 862 863 863 864 865 866 867
837 838 840 841 843 844 845 846 847 849 850 851 852 854 855 855 856 858 859 859 859 860 861 861 861 862 862 863 863 863 864 864 865 865 865 865 865 865 865 865 866 866 866 866 866 865 864 863 862 862 862 862 862 862 862 862 861 861 860 860 860 860 859 859 858 858 857 857 857 857 858 858 858 858 859 859 860 861 861 862 863 863 864 865 867
836 838 840 841 842 843 845 846 847 848 850 851 852 854 855 856 857 858 859 859 859 860 860 861 861 862 862 863 863 863 864 864 864 864 864 865 865 865 865 865 865 865 865 865 865 864 863 863 862 862 862 862 862 862 862 861 861 861 860 860 859 859 859 858 858 858 857 857 856 856 856 857 857 857 858 858 859 860 860 861 862 863 864 865 866
837 838 839 841 842 843 845 846 847 848 849 851 852 853 854 855 856 857 858 858 859 859 860 861 861 862 862 862 863 863 863 863 863 863 864 864 864 865 865 865 864 864 864 864 864 864 863 863 863 862 862 862 862 862 862 861 861 860 860 859 858 858 858 858 857 857 857 856 856 855 855 855 856 856 856 856 857 858 859 860 861 862 863 864 865
836 837 838 840 841 843 844 845 847 848 849 850 851 853 853 854 855 856 857 857 858 859 860 860 861 861 861 862 862 863 863 863 863 863 864 864 864 864 865 865 864 864 864 864 864 863 863 863 863 863 862 862 862 862 861 861 860 860 859 858 858 857 857 858 857 856 855 855 855 854 854 854 854 855 855 855 856 857 858 859 860 861 863 864 864
835 837 838 839 841 842 844 845 846 848 849 850 851 852 853 854 854 855 856 857 857 858 859 859 860 860 860 861 861 862 863 863 863 863 863 863 864 864 864 864 864 864 864 864 864 864 863 863 863 863 862 862 862 861 861 860 860 859 859 858 858 857 857 857 856 855 854 853 853 853 853 853 853 853 853 853 854 855 856 857 859 860 862 862 863
834 835 837 839 840 842 843 845 846 847 848 849 850 851 852 853 854 855 855 856 857 858 858 859 859 859 859 860 860 861 862 862 863 863 863 863 863 863 863 864 864 864 864 864 864 864 864 863 863 863 862 862 861 861 860 860 859 859 858 858 857 857 856 856 855 854 853 852 851 851 851 851 851 851 851 852 852 853 854 855 857 859 860 860 860
833 834 836 838 839 841 842 843 845 846 847 848 849 850 851 852 853 854 854 855 856 857 857 858 858 858 858 859 859 860 861 861 862 862 862 862 862 862 863 863 863 863 863 863 863 863 863 863 863 862 862 861 861 860 860 860 859 858 857 857 856 856 855 855 854 853 852 851 850 850 850 849 849 849 850 850 851 851 853 854 856 857 858 858 858
832 834 835 837 838 840 841 842 844 845 846 847 848 849 850 851 852 853 853 854 855 856 856 856 856 857 857 858 859 859 860 860 861 861 861 861 861 861 862 862 862 862 863 863 863 863 863 862 862 861 861 860 860 859 859 859 858 858 857 856 855 855 854 853 853 853 852 851 849 849 848 848 848 848 849 849 850 850 851 852 854 855 856 856 857
830 832 834 836 837 838 840 842 843 844 845 847 848 849 850 850 851 852 852 853 854 854 854 855 855 855 856 857 857 858 858 859 859 860 860 860 860 860 861 861 861 861 862 862 862 862 862 861 861 860 860 859 859 859 858 858 857 857 856 855 854 854 854 853 852 852 851 850 849 848 847 847 847 847 847 848 849 849 850 851 852 854 854 855 856
829 831 833 834 836 838 839 840 841 843 844 845 847 847 848 849 850 850 851 852 852 853 853 853 854 854 855 855 856 857 857 858 858 858 859 859 859 859 860 860 860 860 861 861 861 861 861 860 860 859 859 859 859 858 858 857 857 856 856 855 854 854 853 852 852 851 851 850 849 848 847 846 846 846 846 846 847 848 848 850 851 852 853 854 854
828 830 832 833 835 836 838 839 840 841 842 844 845 846 847 847 848 849 849 850 850 851 852 852 853 853 854 854 855 856 856 856 857 857 857 858 858 858 858 859 859 860 860 860 860 860 860 859 859 859 859 858 858 858 858 857 857 856 856 855 854 853 852 852 852 851 850 850 848 847 846 846 845 845 845 845 846 846 847 848 849 850 851 852 852
826 828 829 831 833 834 836 837 838 840 841 842 843 844 845 845 846 847 848 848 849 850 850 851 852 852 853 853 854 855 855 855 855 855 856 856 857 856 857 858 858 859 859 859 859 859 859 858 858 858 858 858 858 858 858 857 857 856 855 855 854 853 852 852 851 850 850 849 848 847 846 845 844 844 844 844 844 845 846 846 847 848 849 850 851
824 826 827 829 831 832 834 835 836 837 838 839 840 842 843 843 844 845 846 847 847 848 849 850 850 851 852 852 853 853 853 853 854 854 854 854 854 854 855 857 858 858 858 858 858 858 858 857 857 858 858 858 858 858 857 857 856 855 855 854 854 853 852 851 850 850 849 848 848 847 845 844 844 843 843 843 843 844 844 845 846 847 848 849 849
822 824 825 827 829 830 831 833 834 835 836 837 839 840 841 842 842 843 844 845 845 846 847 848 848 849 850 850 851 851 851 852 852 852 852 852 852 853 854 855 856 856 857 857 857 857 857 857 857 857 857 857 857 857 857 856 856 855 854 854 853 852 852 851 850 850 849 848 847 846 845 844 843 843 842 842 842 842 843 844 845 846 846 847 847
821 822 823 825 826 828 829 830 831 833 834 835 837 838 839 840 841 842 842 843 844 844 845 845 846 847 847 848 848 849 850 850 850 851 851 851 851 852 853 853 854 855 855 855 856 856 855 856 856 856 856 856 856 856 856 856 855 854 853 853 852 852 852 851 850 849 849 848 846 845 844 843 842 842 842 842 842 842 842 842 843 844 844 845 845
819 820 822 823 824 826 827 828 829 831 832 833 835 836 837 838 839 839 840 841 842 842 842 843 844 845 845 846 846 847 848 848 849 849 849 849 850 851 852 852 853 853 854 854 855 854 854 854 854 855 855 855 855 855 855 855 855 853 853 852 852 851 851 851 850 849 849 848 847 845 844 843 842 842 842 841 842 841 841 841 842 842 843 843 843
817 818 819 821 822 824 825 826 827 829 830 831 833 834 835 836 837 837 838 839 840 840 840 840 841 842 843 844 844 844 846 846 846 847 847 848 849 850 851 851 851 852 852 853 853 853 853 853 853 853 854 854 854 854 854 854 854 853 852 852 851 851 851 850 850 849 849 848 847 846 845 843 842 841 841 841 841 841 841 841 841 841 842 842 842
814 816 817 819 820 821 823 824 825 827 828 829 831 832 832 833 834 835 835 836 837 838 838 839 839 840 841 842 842 843 844 844 844 844 845 846 848 849 849 850 850 851 851 851 852 852 851 852 852 852 853 852 852 852 852 853 853 852 851 851 851 850 850 850 850 849 849 848 847 846 845 844 843 842 841 841 841 841 841 841 841 841 841 841 841
812 814 815 816 818 819 821 822 823 825 826 827 828 829 830 831 831 832 833 835 835 836 837 837 838 838 838 839 840 841 841 842 842 843 844 845 847 848 848 848 849 849 849 850 850 850 850 851 851 851 852 851 851 851 851 851 852 852 851 851 850 850 850 850 850 849 849 849 848 847 846 845 844 843 842 842 841 841 841 841 841 841 841 841 841
809 811 812 814 816 817 818 820 821 822 823 825 826 827 828 829 830 831 832 833 833 835 836 836 836 837 837 837 838 838 840 841 841 842 844 845 846 846 847 847 848 848 848 848 849 849 849 849 850 850 851 851 850 850 850 850 851 851 851 851 850 850 850 849 849 849 849 849 849 849 848 847 846 844 843 843 842 842 842 841 841 841 841 841 841
807 808 810 812 813 814 816 817 818 820 821 823 824 825 827 828 829 830 831 832 832 833 834 835 835 835 836 836 836 837 838 840 840 842 843 844 845 845 846 846 847 847 847 848 848 848 848 848 849 849 850 850 850 849 849 849 850 850 850 850 850 851 850 849 848 849 849 849 850 850 849 849 848 846 845 845 844 843 843 842 841 841 841 841 841
804 805 807 808 810 811 813 814 816 817 819 820 821 824 825 827 828 829 830 831 831 832 832 833 834 834 835 836 836 836 838 839 840 841 842 843 844 845 845 845 846 846 846 847 847 847 847 847 848 848 848 849 849 849 849 849 849 849 849 850 850 851 850 849 849 849 849 849 850 850 850 850 849 848 847 846 845 845 844 843 842 842 841 841 840
800 802 804 805 806 808 810 812 813 814 816 817 819 822 823 824 826 827 828 829 830 830 831 831 832 834 834 835 836 836 837 839 840 841 842 843 843 844 844 845 845 845 846 846 847 847 847 847 847 847 848 848 849 849 849 849 849 849 849 849 850 850 850 850 850 850 849 849 850 850 850 849 849 848 848 847 847 846 845 845 844 843 842 842 841
796 799 801 802 803 805 807 808 810 811 813 814 816 819 821 822 823 824 825 826 827 828 829 830 832 833 833 834 835 836 837 838 839 841 842 842 843 843 844 845 845 845 845 846 846 846 846 847 847 847 848 848 849 849 849 849 848 848 849 849 849 850 850 851 851 851 850 850 849 849 849 848 848 848 847 847 847 846 846 845 845 844 843 843 842
793 796 798 799 800 802 803 805 806 808 809 811 814 816 818 819 820 821 822 823 825 826 828 829 831 832 833 833 834 835 836 837 839 840 841 842 842 843 844 844 845 845 845 845 845 846 846 847 847 847 848 848 849 849 849 848 848 848 848 849 849 850 851 851 852 852 852 851 849 848 848 848 848 847 847 847 846 846 845 845 844 844 844 843 842
789 792 794 796 797 799 800 801 803 804 806 808 810 813 815 816 817 818 820 821 822 825 826 828 830 831 832 832 833 835 835 837 838 839 840 841 842 843 844 844 845 845 845 845 845 846 846 846 847 847 848 848 849 849 849 848 848 848 848 848 849 850 851 851 852 852 852 852 850 848 847 847 847 847 847 846 846 845 845 844 843 843 843 842 842
785 788 790 793 795 796 797 798 799 801 803 805 807 810 812 813 814 815 816 818 820 822 825 826 828 830 831 831 832 833 835 836 837 839 840 841 842 843 843 844 845 845 846 846 846 846 846 847 847 847 848 848 849 849 849 849 848 848 848 848 849 850 850 850 851 851 851 851 851 848 847 847 846 846 847 846 846 845 844 843 843 842 842 841 841
782 785 787 789 791 792 793 794 795 797 799 801 804 806 809 810 811 812 814 816 818 820 822 824 826 828 829 829 831 832 833 835 836 837 839 840 841 842 843 844 845 845 846 846 847 847 847 847 847 847 848 848 849 849 849 849 848 848 848 848 848 849 849 849 849 850 850 850 850 848 846 846 846 846 846 846 846 845 844 843 842 841 841 840 839